Погода в Южной Тараве

Кирибати     1°21′52″N   173°09′20″E
темп.,
°C
ветер,
м/с
пор.,
м/с
влажн.,
%
обл.,
%
осадки,
мм/ч
давл.,
гПа
погр.,
м
24 июля, сб
сб2400:00+29в787611 0.3 1010996
03:00+28в78752 0.1 10091006
06:00+28вюв89711 0.1 10091168
09:00+28в897019 0.0 10111245
12:00+29вюв897212 0.1 10101144
15:00+29в79700 0.0 10081140
18:00+29в78726 0.0 10091099
21:00+29всв787212 0.0 10111053
25 июля, вс
вс2500:00+29всв787417 0.0 1011995
03:00+28в887611 0.3 1008963
06:00+28в89705 0.3 1008999
09:00+29вюв9107279 0.0 10101180
12:00+29в796989 0.0 10091045
15:00+29в667053 0.0 10081049
18:00+28в457734 1.0 1008431
21:00+27в557988 1.9 1011383
26 июля, пн
пн2600:00+28в677990 4.4 1010746
03:00+27вюв5681100 0.5 1009684
06:00+28вюв568095 1.1 1010701
09:00+28вюв678015 2.1 1011570
12:00+28в667998 6.1 1010666
15:00+28в568171 5.3 1008517
18:00+28вюв557899 8.1 1009743
21:00+28вюв667899 0.0 1010826
27 июля, вт
вт2700:00+28вюв567974 0.4 1010753
03:00+28вюв557920 0.9 1009684
06:00+28вюв558018 1.7 1010673
09:00+28вюв45795 0.5 1011678
12:00+28вюв44768 0.6 1010749
15:00+28в347515 0.1 1008769
18:00+28всв33765 0.6 1009507
21:00+28в33773 0.9 1011558
28 июля, ср
ср2800:00+27в33793 1.9 1011284
03:00+27вюв34755 0.6 1009449
06:00+28вюв23725 1.6 1010567
09:00+28вюв34725 1.1 1011555
12:00+28вюв337054 1.3 1010673
15:00+28вюв447190 0.3 1008749
18:00+28в4569100 0.3 1009896
21:00+28всв557194 0.0 1010982